This demonstration page uses our WeatherBlox Daily Observations layout. Learn more.

Left ArrowRight Arrow

Hourly Observations for April 24, 2018

Temp ( °F °C ) Dew Point ( °F °C ) Humidity (%) Winds ( mph kmh ) Pressure ( in mb ) Visibility ( mi km ) Precip ( " mm )
12:56 am 00:56 Clear 49 9.4 40 4.4 71 71 Calm 30.11 1020 10 16 0.00 0.00
1:56 am 01:56 Mostly Clear 47 8.3 40 4.4 77 77 VRB 7 11 30.14 1021 10 16 0.00 0.00
2:56 am 02:56 Clear 47 8.3 39 3.9 74 74 Calm 30.11 1020 10 16 0.00 0.00
3:56 am 03:56 Clear 49 9.4 39 3.9 69 69 Calm 30.09 1019 10 16 0.00 0.00
4:56 am 04:56 Mostly Cloudy 46 7.8 40 4.4 79 79 NW 7 11 30.11 1020 10 16 0.00 0.00
5:56 am 05:56 Partly Cloudy 46 7.8 41 5 83 83 WNW 6 9 30.13 1020 10 16 0.00 0.00
6:56 am 06:56 Mostly Cloudy 49 9.4 42 5.6 77 77 NW 12 19 30.15 1021 10 16 0.00 0.00
7:56 am 07:56 Cloudy 49 9.4 43 6.1 80 80 NNW 22 35 30.19 1022 10 16 0.00 0.00
8:30 am 08:30 Cloudy 48 9 43 6 82 82 NNW 18 30 30.24 1024 10 16 0.00 0.00
8:56 am 08:56 Cloudy 47 8.3 41 5 80 80 NNW 16 26 30.22 1023 10 16 0.00 0.00
9:46 am 09:46 Cloudy with Light Rain 46 8 43 6 87 87 NNW 18 30 30.27 1025 10 16 0.00 0.03
9:56 am 09:56 Cloudy with Light Rain 46 7.8 42 5.6 86 86 NNW 17 28 30.24 1024 10 16 0.00 0.03
10:56 am 10:56 Cloudy with Light Rain 44 6.7 42 5.6 93 93 NNW 17 28 30.26 1025 10 16 0.01 0.25
11:56 am 11:56 Cloudy with Light Rain 43 6.1 41 5 93 93 WNW 15 24 30.32 1027 10 16 0.12 3.05
12:56 pm 12:56 Cloudy with Rain 43 6.1 41 5 93 93 WNW 16 26 30.31 1027 10 16 0.18 4.57
1:20 pm 13:20 Cloudy with Light Rain 43 6 41 5 93 93 NW 13 20 30.33 1027 10 16 0.05 1.27
1:36 pm 13:36 Cloudy with Light Rain 43 6 41 5 93 93 NW 15 24 30.33 1027 10 16 0.06 1.52
1:56 pm 13:56 Cloudy with Light Rain 43 6.1 41 5 93 93 NNW 14 22 30.30 1026 10 16 0.09 2.29
2:09 pm 14:09 Cloudy with Light Rain 43 6 41 5 93 93 NW 13 20 30.33 1027 10 16 0.00 0.00
2:56 pm 14:56 Cloudy with Light Rain 44 6.7 41 5 89 89 NNW 14 22 30.29 1026 10 16 0.05 1.27
3:56 pm 15:56 Cloudy 45 7.2 41 5 86 86 NNW 17 28 30.27 1025 10 16 0.00 0.03
4:56 pm 16:56 Cloudy 44 6.7 41 5 89 89 NW 18 30 30.28 1025 10 16 0.00 0.00
5:56 pm 17:56 Cloudy 44 6.7 41 5 89 89 NNW 18 30 30.27 1025 10 16 0.00 0.00
6:36 pm 18:36 Cloudy 45 7 39 4 81 81 NNW 21 33 30.33 1027 10 16 0.00 0.00
6:56 pm 18:56 Cloudy 44 6.7 41 5 89 89 NNW 20 31 30.28 1025 10 16 0.00 0.00
7:56 pm 19:56 Cloudy 43 6.1 40 4.4 89 89 N 21 33 30.28 1025 10 16 0.00 0.00
8:33 pm 20:33 Cloudy 41 5 39 4 93 93 NNW 21 33 30.33 1027 10 16 0.00 0.00
8:56 pm 20:56 Cloudy 40 4.4 38 3.3 93 93 NNW 21 33 30.31 1027 8 13 0.00 0.00
9:56 pm 21:56 Cloudy 40 4.4 38 3.3 93 93 N 17 28 30.34 1027 10 16 0.00 0.00
10:56 pm 22:56 Cloudy with Mist and Fog 40 4.4 39 3.9 97 97 N 15 24 30.35 1028 6 10 0.00 0.00
11:56 pm 23:56 Cloudy 41 5 38 3.3 89 89 N 17 28 30.35 1028 10 16 0.00 0.00

Powered by AerisWeather